sat.trackr.live / text

‹ back to catalog

STARLINK-1678

NORAD 46538 · 2020-070G

PAYLOAD ACTIVE UNKNOWN

§ Identity

Operator
Country
US
Launch date
2020-10-06
Launch site
AFETR
Launch vehicle
Mass (kg)
RCS (m²)

Purposes: comms

External: N2YO · Heavens-Above · Gunter

§ Orbital elements

Epoch: 2026-07-14T05:56:22.981344Z

Period
87.67 min
Inclination
53.0087°
Eccentricity
0.0005955
Mean motion
16.42449518 rev/d
Perigee alt
155.4 km
Apogee alt
163.2 km
Semi-major
6,537.4 km
B*
4.8285e-4
RAAN
195.4622°
Arg perigee
286.5875°
Mean anomaly
73.4518°
Rev number
32,043

§ Raw data

STARLINK-16781 46538U 20070G   26195.24748821  .09232335  12460-4  48285-3 0  99982 46538  53.0087 195.4622 0005955 286.5875  73.4518 16.42449518320439

JSON: /api/v1/satellites/46538 · /tle

For live sub-satellite position, see the globe view (requires WebGL).

§ Visibility from observer

Set your observer location to see the next 7 days of passes ≥ 10°. The values pass through the URL so the page stays shareable.

No JS? Fill the form by hand. The geolocation button needs JavaScript.